ISS - Orbit Data

View from orbit pole
View from above orbital plane
View from above satellite
View from above satellite

Ground track
Ground track

The orbit data is extracted from the following two-line orbital elements,

1 25544U 98067A   09324.89652069  .00016157  00000-0  10314-3 0   222
2 25544 051.6460 221.6824 0005808 002.2379 093.4240 15.76541880630649
Epoch (UTC): 21:30:59, Friday, November 20, 2009
Eccentricity: 0.0005808
Inclination: 51.646°
Perigee height: 336 km
Apogee height: 344 km
Right Ascension of ascending node: 221.6824°
Argument of perigee: 2.2379°
Revolutions per day: 15.7654188
Mean anomaly at epoch: 93.424°
Orbit number at epoch: 63064

The dashed part of the orbit path shows where the satellite is in the earth's shadow,
and the full part is where it is sunlit.  


Developed and maintained by Chris Peat, Heavens-Above GmbH
Please read the updated FAQ before sending e-mail. Imprint.
DLR